TimePST,TemperatureF,Dew PointF,Humidity,Sea Level PressureIn,VisibilityMPH,Wind Direction,Wind SpeedMPH,Gust SpeedMPH,PrecipitationIn,Events,Conditions,WindDirDegrees,DateUTC
12:10 AM,48.2,44.6,87,30.11,10.0,Calm,Calm,-,N/A,,Clear,0,2012-12-11 08:10:00
12:30 AM,48.2,44.6,87,30.11,10.0,Calm,Calm,-,N/A,,Clear,0,2012-12-11 08:30:00
12:55 AM,48.2,42.8,82,30.11,10.0,Calm,Calm,-,N/A,,Clear,0,2012-12-11 08:55:00
1:10 AM,46.4,42.8,87,30.10,10.0,Calm,Calm,-,N/A,,Clear,0,2012-12-11 09:10:00
1:30 AM,46.4,42.8,87,30.10,10.0,Calm,Calm,-,N/A,,Clear,0,2012-12-11 09:30:00
1:55 AM,46.4,42.8,87,30.09,10.0,Calm,Calm,-,N/A,,Clear,0,2012-12-11 09:55:00
2:10 AM,46.4,42.8,87,30.09,10.0,Calm,Calm,-,N/A,,Clear,0,2012-12-11 10:10:00
2:30 AM,46.4,44.6,93,30.09,10.0,Calm,Calm,-,N/A,,Clear,0,2012-12-11 10:30:00
2:50 AM,46.4,41.0,81,30.09,10.0,Calm,Calm,-,N/A,,Clear,0,2012-12-11 10:50:00
3:10 AM,46.4,41.0,81,30.08,10.0,Calm,Calm,-,N/A,,Clear,0,2012-12-11 11:10:00
3:30 AM,44.6,41.0,87,30.08,10.0,Calm,Calm,-,N/A,,Clear,0,2012-12-11 11:30:00
3:50 AM,44.6,41.0,87,30.08,10.0,Calm,Calm,-,N/A,,Clear,0,2012-12-11 11:50:00
4:10 AM,44.6,41.0,87,30.08,10.0,Calm,Calm,-,N/A,,Clear,0,2012-12-11 12:10:00
4:30 AM,44.6,41.0,87,30.07,10.0,NW,3.5,-,N/A,,Clear,310,2012-12-11 12:30:00
4:50 AM,46.4,42.8,87,30.07,10.0,Calm,Calm,-,N/A,,Clear,0,2012-12-11 12:50:00
5:10 AM,44.6,41.0,87,30.06,10.0,Calm,Calm,-,N/A,,Clear,0,2012-12-11 13:10:00
5:30 AM,44.6,41.0,87,30.06,10.0,Calm,Calm,-,N/A,,Clear,0,2012-12-11 13:30:00
6:15 AM,44.6,42.8,93,30.05,10.0,Calm,Calm,-,N/A,,Clear,0,2012-12-11 14:15:00
6:30 AM,46.4,44.6,93,30.06,10.0,Calm,Calm,-,N/A,,Clear,0,2012-12-11 14:30:00
6:47 AM,44.6,44.6,100,30.05,10.0,Calm,Calm,-,N/A,,Partly Cloudy,0,2012-12-11 14:47:00
6:50 AM,44.6,44.6,100,30.05,10.0,Calm,Calm,-,N/A,,Clear,0,2012-12-11 14:50:00
7:47 AM,44.6,42.8,93,30.06,10.0,Calm,Calm,-,N/A,,Partly Cloudy,0,2012-12-11 15:47:00
8:47 AM,50.0,46.4,87,30.05,10.0,Calm,Calm,-,N/A,,Partly Cloudy,0,2012-12-11 16:47:00
9:53 AM,53.6,50.0,88,30.05,10.0,Calm,Calm,-,N/A,,Partly Cloudy,0,2012-12-11 17:53:00
10:48 AM,55.4,50.0,82,30.03,10.0,NNE,5.8,-,N/A,,Partly Cloudy,30,2012-12-11 18:48:00
12:50 PM,59.0,50.0,72,29.97,7.0,WNW,6.9,-,N/A,,Scattered Clouds,290,2012-12-11 20:50:00
1:51 PM,59.0,48.2,67,29.95,10.0,West,13.8,21.9,N/A,,Mostly Cloudy,280,2012-12-11 21:51:00
2:55 PM,55.4,48.2,77,29.94,10.0,WSW,13.8,23.0,N/A,,Mostly Cloudy,250,2012-12-11 22:55:00
3:55 PM,53.6,48.2,82,29.94,10.0,West,13.8,17.3,N/A,,Mostly Cloudy,260,2012-12-11 23:55:00
4:55 PM,53.6,46.4,77,29.94,10.0,WSW,6.9,-,N/A,,Mostly Cloudy,250,2012-12-12 00:55:00
5:47 PM,53.6,46.4,77,29.91,10.0,WSW,4.6,-,N/A,,Mostly Cloudy,250,2012-12-12 01:47:00
6:56 PM,53.6,48.2,82,29.90,10.0,WSW,6.9,-,N/A,,Mostly Cloudy,250,2012-12-12 02:56:00
7:53 PM,53.6,46.4,77,29.91,10.0,WSW,6.9,-,N/A,,Overcast,250,2012-12-12 03:53:00
8:53 PM,53.6,44.6,72,29.91,10.0,West,5.8,-,N/A,,Overcast,270,2012-12-12 04:53:00
9:15 PM,53.6,44.6,72,29.91,10.0,WSW,6.9,-,N/A,,Overcast,250,2012-12-12 05:15:00
9:30 PM,53.6,44.6,72,29.90,10.0,SW,6.9,-,N/A,,Overcast,220,2012-12-12 05:30:00
9:50 PM,53.6,44.6,72,29.89,10.0,SSW,5.8,-,N/A,,Overcast,210,2012-12-12 05:50:00
10:15 PM,53.6,44.6,72,29.89,10.0,South,3.5,-,N/A,,Overcast,180,2012-12-12 06:15:00
10:30 PM,53.6,44.6,72,29.89,10.0,SSE,4.6,-,N/A,,Overcast,150,2012-12-12 06:30:00
10:50 PM,51.8,46.4,82,29.89,7.0,SSE,4.6,-,N/A,Rain,Light Rain,150,2012-12-12 06:50:00
11:15 PM,51.8,46.4,82,29.89,10.0,SE,3.5,-,N/A,,Overcast,140,2012-12-12 07:15:00
11:30 PM,51.8,46.4,82,29.89,10.0,South,3.5,-,N/A,,Overcast,190,2012-12-12 07:30:00
11:50 PM,51.8,46.4,82,29.88,10.0,SSE,8.1,-,N/A,,Overcast,150,2012-12-12 07:50:00